Time,TemperatureF,DewpointF,PressureIn,WindDirection,WindDirectionDegrees,WindSpeedMPH,WindSpeedGustMPH,Humidity,HourlyPrecipIn,Conditions,Clouds,dailyrainin,SoftwareType,DateUTC
2013-05-10 00:02:00,50.0,39.0,30.19,North,-999,-999.0,-999.0,66,-99.99,,,-99.99,,2013-05-10 05:02:00,
2013-05-10 00:12:00,50.0,37.0,30.19,North,-999,-999.0,-999.0,61,-99.99,,,-99.99,,2013-05-10 05:12:00,
2013-05-10 00:22:00,50.0,37.0,30.19,North,-999,-999.0,-999.0,61,-99.99,,,-99.99,,2013-05-10 05:22:00,
2013-05-10 00:32:00,48.0,37.0,30.19,North,-999,-999.0,-999.0,66,-99.99,,,-99.99,,2013-05-10 05:32:00,
2013-05-10 00:42:00,48.0,37.0,30.19,North,-999,-999.0,-999.0,66,-99.99,,,-99.99,,2013-05-10 05:42:00,
2013-05-10 00:52:00,48.0,37.0,30.19,North,-999,-999.0,-999.0,66,-99.99,,,-99.99,,2013-05-10 05:52:00,
2013-05-10 01:01:00,48.0,37.0,30.19,North,-999,-999.0,-999.0,66,-99.99,,,-99.99,,2013-05-10 06:01:00,
2013-05-10 01:12:00,48.0,37.0,30.19,North,-999,-999.0,-999.0,66,-99.99,,,-99.99,,2013-05-10 06:12:00,
2013-05-10 01:21:00,48.0,37.0,30.19,North,-999,-999.0,-999.0,66,-99.99,,,-99.99,,2013-05-10 06:21:00,
2013-05-10 01:32:00,48.0,37.0,30.20,North,-999,-999.0,-999.0,66,-99.99,,,-99.99,,2013-05-10 06:32:00,
2013-05-10 01:42:00,48.0,37.0,30.20,North,-999,-999.0,-999.0,66,-99.99,,,-99.99,,2013-05-10 06:42:00,
2013-05-10 01:52:00,48.0,37.0,30.19,North,-999,-999.0,-999.0,66,-99.99,,,-99.99,,2013-05-10 06:52:00,
2013-05-10 02:02:00,48.0,37.0,30.19,North,-999,-999.0,-999.0,66,-99.99,,,-99.99,,2013-05-10 07:02:00,
2013-05-10 02:12:00,48.0,37.0,30.19,North,-999,-999.0,-999.0,66,-99.99,,,-99.99,,2013-05-10 07:12:00,
2013-05-10 02:22:00,48.0,37.0,30.19,North,-999,-999.0,-999.0,66,-99.99,,,-99.99,,2013-05-10 07:22:00,
2013-05-10 02:31:00,46.0,36.0,30.18,North,-999,-999.0,-999.0,65,-99.99,,,-99.99,,2013-05-10 07:31:00,
2013-05-10 02:42:00,46.0,36.0,30.18,North,-999,-999.0,-999.0,65,-99.99,,,-99.99,,2013-05-10 07:42:00,
2013-05-10 02:52:00,46.0,36.0,30.18,North,-999,-999.0,-999.0,65,-99.99,,,-99.99,,2013-05-10 07:52:00,
2013-05-10 03:02:00,46.0,36.0,30.18,North,-999,-999.0,-999.0,65,-99.99,,,-99.99,,2013-05-10 08:02:00,
2013-05-10 03:12:00,46.0,36.0,30.18,North,-999,-999.0,-999.0,65,-99.99,,,-99.99,,2013-05-10 08:12:00,
2013-05-10 03:22:00,46.0,36.0,30.18,North,-999,-999.0,-999.0,65,-99.99,,,-99.99,,2013-05-10 08:22:00,
2013-05-10 03:32:00,45.0,36.0,30.18,North,-999,-999.0,-999.0,70,-99.99,,,-99.99,,2013-05-10 08:32:00,
2013-05-10 03:42:00,45.0,36.0,30.18,North,-999,-999.0,-999.0,70,-99.99,,,-99.99,,2013-05-10 08:42:00,
2013-05-10 03:52:00,45.0,36.0,30.18,North,-999,-999.0,-999.0,70,-99.99,,,-99.99,,2013-05-10 08:52:00,
2013-05-10 04:01:00,45.0,36.0,30.18,North,-999,-999.0,-999.0,70,-99.99,,,-99.99,,2013-05-10 09:01:00,
2013-05-10 04:11:00,45.0,36.0,30.18,North,-999,-999.0,-999.0,70,-99.99,,,-99.99,,2013-05-10 09:11:00,
2013-05-10 04:21:00,45.0,36.0,30.18,North,-999,-999.0,-999.0,70,-99.99,,,-99.99,,2013-05-10 09:21:00,
2013-05-10 04:32:00,43.0,36.0,30.17,North,-999,-999.0,-999.0,75,-99.99,,,-99.99,,2013-05-10 09:32:00,
2013-05-10 04:43:00,43.0,36.0,30.17,North,-999,-999.0,-999.0,75,-99.99,,,-99.99,,2013-05-10 09:43:00,
2013-05-10 04:52:00,41.0,34.0,30.18,North,-999,-999.0,-999.0,75,-99.99,,,-99.99,,2013-05-10 09:52:00,
2013-05-10 05:03:00,41.0,34.0,30.18,North,-999,-999.0,-999.0,75,-99.99,,,-99.99,,2013-05-10 10:03:00,
2013-05-10 05:12:00,39.0,34.0,30.18,North,-999,-999.0,-999.0,80,-99.99,,,-99.99,,2013-05-10 10:12:00,
2013-05-10 05:23:00,39.0,34.0,30.18,North,-999,-999.0,-999.0,80,-99.99,,,-99.99,,2013-05-10 10:23:00,
2013-05-10 05:32:00,39.0,34.0,30.18,North,-999,-999.0,-999.0,80,-99.99,,,-99.99,,2013-05-10 10:32:00,
2013-05-10 05:42:00,39.0,34.0,30.18,North,-999,-999.0,-999.0,80,-99.99,,,-99.99,,2013-05-10 10:42:00,
2013-05-10 05:52:00,39.0,36.0,30.18,North,-999,-999.0,-999.0,86,-99.99,,,-99.99,,2013-05-10 10:52:00,
2013-05-10 06:02:00,39.0,36.0,30.18,North,-999,-999.0,-999.0,86,-99.99,,,-99.99,,2013-05-10 11:02:00,
2013-05-10 06:12:00,39.0,36.0,30.18,North,-999,-999.0,-999.0,86,-99.99,,,-99.99,,2013-05-10 11:12:00,
2013-05-10 06:22:00,39.0,36.0,30.18,North,-999,-999.0,-999.0,86,-99.99,,,-99.99,,2013-05-10 11:22:00,
2013-05-10 06:32:00,39.0,34.0,30.18,North,-999,-999.0,-999.0,80,-99.99,,,-99.99,,2013-05-10 11:32:00,
2013-05-10 06:42:00,39.0,34.0,30.18,North,-999,-999.0,-999.0,80,-99.99,,,-99.99,,2013-05-10 11:42:00,
2013-05-10 06:52:00,39.0,32.0,30.19,North,-999,-999.0,-999.0,75,-99.99,,,-99.99,,2013-05-10 11:52:00,
2013-05-10 07:01:00,39.0,32.0,30.19,North,-999,-999.0,-999.0,75,-99.99,,,-99.99,,2013-05-10 12:01:00,
2013-05-10 07:12:00,39.0,34.0,30.18,North,-999,-999.0,-999.0,80,-99.99,,,-99.99,,2013-05-10 12:12:00,
2013-05-10 07:21:00,39.0,34.0,30.18,North,-999,-999.0,-999.0,80,-99.99,,,-99.99,,2013-05-10 12:21:00,
2013-05-10 07:32:00,41.0,34.0,30.18,North,-999,-999.0,-999.0,75,-99.99,,,-99.99,,2013-05-10 12:32:00,
2013-05-10 07:42:00,41.0,34.0,30.18,North,-999,-999.0,-999.0,75,-99.99,,,-99.99,,2013-05-10 12:42:00,
2013-05-10 07:51:00,43.0,30.0,30.18,North,-999,-999.0,-999.0,60,-99.99,,,-99.99,,2013-05-10 12:51:00,
2013-05-10 08:01:00,43.0,30.0,30.18,North,-999,-999.0,-999.0,60,-99.99,,,-99.99,,2013-05-10 13:01:00,
2013-05-10 08:11:00,43.0,28.0,30.18,North,-999,-999.0,-999.0,56,-99.99,,,-99.99,,2013-05-10 13:11:00,
2013-05-10 08:21:00,43.0,28.0,30.18,North,-999,-999.0,-999.0,56,-99.99,,,-99.99,,2013-05-10 13:21:00,
2013-05-10 08:32:00,45.0,27.0,30.19,North,-999,-999.0,-999.0,48,-99.99,,,-99.99,,2013-05-10 13:32:00,
2013-05-10 08:41:00,45.0,27.0,30.19,North,-999,-999.0,-999.0,48,-99.99,,,-99.99,,2013-05-10 13:41:00,
2013-05-10 08:52:00,45.0,28.0,30.19,North,-999,-999.0,-999.0,52,-99.99,,,-99.99,,2013-05-10 13:52:00,
2013-05-10 09:02:00,45.0,28.0,30.19,North,-999,-999.0,-999.0,52,-99.99,,,-99.99,,2013-05-10 14:02:00,
2013-05-10 09:11:00,46.0,28.0,30.18,North,-999,-999.0,-999.0,49,-99.99,,,-99.99,,2013-05-10 14:11:00,
2013-05-10 09:21:00,46.0,28.0,30.18,North,-999,-999.0,-999.0,49,-99.99,,,-99.99,,2013-05-10 14:21:00,
2013-05-10 09:32:00,46.0,27.0,30.18,North,-999,-999.0,-999.0,45,-99.99,,,-99.99,,2013-05-10 14:32:00,
2013-05-10 09:42:00,46.0,27.0,30.18,North,-999,-999.0,-999.0,45,-99.99,,,-99.99,,2013-05-10 14:42:00,
2013-05-10 09:51:00,48.0,27.0,30.18,North,-999,-999.0,-999.0,42,-99.99,,,-99.99,,2013-05-10 14:51:00,
2013-05-10 10:02:00,48.0,27.0,30.18,North,-999,-999.0,-999.0,42,-99.99,,,-99.99,,2013-05-10 15:02:00,
2013-05-10 10:21:00,48.0,27.0,30.17,North,-999,-999.0,-999.0,42,-99.99,,,-99.99,,2013-05-10 15:21:00,
2013-05-10 10:32:00,48.0,25.0,30.17,North,-999,-999.0,-999.0,39,-99.99,,,-99.99,,2013-05-10 15:32:00,
2013-05-10 10:42:00,48.0,25.0,30.17,North,-999,-999.0,-999.0,39,-99.99,,,-99.99,,2013-05-10 15:42:00,
2013-05-10 10:52:00,50.0,25.0,30.16,North,-999,-999.0,-999.0,37,-99.99,,,-99.99,,2013-05-10 15:52:00,
2013-05-10 11:02:00,50.0,25.0,30.16,North,-999,-999.0,-999.0,37,-99.99,,,-99.99,,2013-05-10 16:02:00,
2013-05-10 11:12:00,52.0,23.0,30.16,North,-999,-999.0,-999.0,32,-99.99,,,-99.99,,2013-05-10 16:12:00,
2013-05-10 11:23:00,52.0,23.0,30.16,North,-999,-999.0,-999.0,32,-99.99,,,-99.99,,2013-05-10 16:23:00,
2013-05-10 11:32:00,54.0,25.0,30.15,North,-999,-999.0,-999.0,32,-99.99,,,-99.99,,2013-05-10 16:32:00,
2013-05-10 11:42:00,54.0,25.0,30.15,North,-999,-999.0,-999.0,32,-99.99,,,-99.99,,2013-05-10 16:42:00,
2013-05-10 11:52:00,55.0,23.0,30.15,North,-999,-999.0,-999.0,28,-99.99,,,-99.99,,2013-05-10 16:52:00,
2013-05-10 12:02:00,55.0,23.0,30.15,North,-999,-999.0,-999.0,28,-99.99,,,-99.99,,2013-05-10 17:02:00,
2013-05-10 12:12:00,55.0,19.0,30.14,North,-999,-999.0,-999.0,24,-99.99,,,-99.99,,2013-05-10 17:12:00,
2013-05-10 12:22:00,55.0,19.0,30.14,North,-999,-999.0,-999.0,24,-99.99,,,-99.99,,2013-05-10 17:22:00,
2013-05-10 12:32:00,57.0,23.0,30.13,North,-999,-999.0,-999.0,26,-99.99,,,-99.99,,2013-05-10 17:32:00,
2013-05-10 12:42:00,57.0,23.0,30.13,North,-999,-999.0,-999.0,26,-99.99,,,-99.99,,2013-05-10 17:42:00,
2013-05-10 12:52:00,59.0,25.0,30.13,North,-999,-999.0,-999.0,26,-99.99,,,-99.99,,2013-05-10 17:52:00,
2013-05-10 13:11:00,59.0,25.0,30.13,North,-999,-999.0,-999.0,26,-99.99,,,-99.99,,2013-05-10 18:11:00,
2013-05-10 13:22:00,61.0,27.0,30.12,North,-999,-999.0,-999.0,26,-99.99,,,-99.99,,2013-05-10 18:22:00,
2013-05-10 13:34:00,61.0,27.0,30.11,North,-999,-999.0,-999.0,26,-99.99,,,-99.99,,2013-05-10 18:34:00,
2013-05-10 13:43:00,61.0,27.0,30.11,North,-999,-999.0,-999.0,26,-99.99,,,-99.99,,2013-05-10 18:43:00,
2013-05-10 13:54:00,63.0,28.0,30.10,North,-999,-999.0,-999.0,27,-99.99,,,-99.99,,2013-05-10 18:54:00,
2013-05-10 14:02:00,63.0,28.0,30.10,North,-999,-999.0,-999.0,27,-99.99,,,-99.99,,2013-05-10 19:02:00,
2013-05-10 14:11:00,63.0,28.0,30.10,North,-999,-999.0,-999.0,27,-99.99,,,-99.99,,2013-05-10 19:11:00,
2013-05-10 14:21:00,63.0,28.0,30.10,North,-999,-999.0,-999.0,27,-99.99,,,-99.99,,2013-05-10 19:21:00,
2013-05-10 14:32:00,63.0,28.0,30.09,North,-999,-999.0,-999.0,27,-99.99,,,-99.99,,2013-05-10 19:32:00,
2013-05-10 14:42:00,63.0,28.0,30.09,North,-999,-999.0,-999.0,27,-99.99,,,-99.99,,2013-05-10 19:42:00,
2013-05-10 14:52:00,64.0,28.0,30.07,North,-999,-999.0,-999.0,25,-99.99,,,-99.99,,2013-05-10 19:52:00,
2013-05-10 15:01:00,64.0,28.0,30.07,North,-999,-999.0,-999.0,25,-99.99,,,-99.99,,2013-05-10 20:01:00,
2013-05-10 15:12:00,64.0,30.0,30.05,North,-999,-999.0,-999.0,27,-99.99,,,-99.99,,2013-05-10 20:12:00,
2013-05-10 15:21:00,64.0,30.0,30.05,North,-999,-999.0,-999.0,27,-99.99,,,-99.99,,2013-05-10 20:21:00,
2013-05-10 15:32:00,66.0,30.0,30.04,North,-999,-999.0,-999.0,25,-99.99,,,-99.99,,2013-05-10 20:32:00,
2013-05-10 15:41:00,66.0,30.0,30.04,North,-999,-999.0,-999.0,25,-99.99,,,-99.99,,2013-05-10 20:41:00,
2013-05-10 15:52:00,70.0,30.0,30.03,North,-999,-999.0,-999.0,22,-99.99,,,-99.99,,2013-05-10 20:52:00,
2013-05-10 16:02:00,70.0,30.0,30.03,North,-999,-999.0,-999.0,22,-99.99,,,-99.99,,2013-05-10 21:02:00,
2013-05-10 16:11:00,70.0,28.0,30.01,North,-999,-999.0,-999.0,21,-99.99,,,-99.99,,2013-05-10 21:11:00,
2013-05-10 16:25:00,70.0,28.0,30.01,North,-999,-999.0,-999.0,21,-99.99,,,-99.99,,2013-05-10 21:25:00,
2013-05-10 16:32:00,70.0,28.0,30.00,North,-999,-999.0,-999.0,21,-99.99,,,-99.99,,2013-05-10 21:32:00,
2013-05-10 16:43:00,70.0,28.0,30.00,North,-999,-999.0,-999.0,21,-99.99,,,-99.99,,2013-05-10 21:43:00,
2013-05-10 16:52:00,72.0,28.0,30.00,North,-999,-999.0,-999.0,19,-99.99,,,-99.99,,2013-05-10 21:52:00,
2013-05-10 17:02:00,72.0,28.0,30.00,North,-999,-999.0,-999.0,19,-99.99,,,-99.99,,2013-05-10 22:02:00,
2013-05-10 17:12:00,72.0,32.0,29.99,North,-999,-999.0,-999.0,23,-99.99,,,-99.99,,2013-05-10 22:12:00,
2013-05-10 17:22:00,72.0,32.0,29.99,North,-999,-999.0,-999.0,23,-99.99,,,-99.99,,2013-05-10 22:22:00,
2013-05-10 17:32:00,72.0,34.0,29.98,North,-999,-999.0,-999.0,24,-99.99,,,-99.99,,2013-05-10 22:32:00,
2013-05-10 17:42:00,72.0,34.0,29.98,North,-999,-999.0,-999.0,24,-99.99,,,-99.99,,2013-05-10 22:42:00,
2013-05-10 17:52:00,72.0,36.0,29.98,North,-999,-999.0,-999.0,26,-99.99,,,-99.99,,2013-05-10 22:52:00,
2013-05-10 18:02:00,72.0,36.0,29.98,North,-999,-999.0,-999.0,26,-99.99,,,-99.99,,2013-05-10 23:02:00,
2013-05-10 18:12:00,72.0,36.0,29.95,North,-999,-999.0,-999.0,26,-99.99,,,-99.99,,2013-05-10 23:12:00,
2013-05-10 18:22:00,72.0,36.0,29.95,North,-999,-999.0,-999.0,26,-99.99,,,-99.99,,2013-05-10 23:22:00,
2013-05-10 18:32:00,70.0,37.0,29.95,North,-999,-999.0,-999.0,30,-99.99,,,-99.99,,2013-05-10 23:32:00,
2013-05-10 18:42:00,70.0,37.0,29.95,North,-999,-999.0,-999.0,30,-99.99,,,-99.99,,2013-05-10 23:42:00,
2013-05-10 18:52:00,72.0,37.0,29.95,North,-999,-999.0,-999.0,28,-99.99,,,-99.99,,2013-05-10 23:52:00,
2013-05-10 19:02:00,72.0,37.0,29.95,North,-999,-999.0,-999.0,28,-99.99,,,-99.99,,2013-05-11 00:02:00,
2013-05-10 19:11:00,70.0,39.0,29.95,North,-999,-999.0,-999.0,32,-99.99,,,-99.99,,2013-05-11 00:11:00,
2013-05-10 19:21:00,70.0,39.0,29.95,North,-999,-999.0,-999.0,32,-99.99,,,-99.99,,2013-05-11 00:21:00,
2013-05-10 19:32:00,64.0,45.0,29.95,North,-999,-999.0,-999.0,48,-99.99,,,-99.99,,2013-05-11 00:32:00,
2013-05-10 19:42:00,64.0,45.0,29.95,North,-999,-999.0,-999.0,48,-99.99,,,-99.99,,2013-05-11 00:42:00,
2013-05-10 19:51:00,64.0,45.0,29.94,North,-999,-999.0,-999.0,48,-99.99,,,-99.99,,2013-05-11 00:51:00,
2013-05-10 20:01:00,64.0,45.0,29.94,North,-999,-999.0,-999.0,48,-99.99,,,-99.99,,2013-05-11 01:01:00,
2013-05-10 20:11:00,63.0,48.0,29.95,North,-999,-999.0,-999.0,59,-99.99,,,-99.99,,2013-05-11 01:11:00,
2013-05-10 20:21:00,63.0,48.0,29.95,North,-999,-999.0,-999.0,59,-99.99,,,-99.99,,2013-05-11 01:21:00,
2013-05-10 20:32:00,63.0,39.0,29.96,North,-999,-999.0,-999.0,41,-99.99,,,-99.99,,2013-05-11 01:32:00,
2013-05-10 20:42:00,63.0,39.0,29.96,North,-999,-999.0,-999.0,41,-99.99,,,-99.99,,2013-05-11 01:42:00,
2013-05-10 20:52:00,61.0,39.0,29.98,North,-999,-999.0,-999.0,44,-99.99,,,-99.99,,2013-05-11 01:52:00,
2013-05-10 21:02:00,61.0,39.0,29.98,North,-999,-999.0,-999.0,44,-99.99,,,-99.99,,2013-05-11 02:02:00,
2013-05-10 21:11:00,57.0,39.0,30.01,North,-999,-999.0,-999.0,50,-99.99,,,-99.99,,2013-05-11 02:11:00,
2013-05-10 21:22:00,57.0,39.0,30.01,North,-999,-999.0,-999.0,50,-99.99,,,-99.99,,2013-05-11 02:22:00,
2013-05-10 21:32:00,55.0,39.0,30.03,North,-999,-999.0,-999.0,54,-99.99,,,-99.99,,2013-05-11 02:32:00,
2013-05-10 21:42:00,55.0,39.0,30.03,North,-999,-999.0,-999.0,54,-99.99,,,-99.99,,2013-05-11 02:42:00,
2013-05-10 21:51:00,55.0,39.0,30.05,North,-999,-999.0,-999.0,54,-99.99,,,-99.99,,2013-05-11 02:51:00,
2013-05-10 22:01:00,55.0,39.0,30.05,North,-999,-999.0,-999.0,54,-99.99,,,-99.99,,2013-05-11 03:01:00,
2013-05-10 22:11:00,54.0,37.0,30.06,North,-999,-999.0,-999.0,54,-99.99,,,-99.99,,2013-05-11 03:11:00,
2013-05-10 22:21:00,54.0,37.0,30.06,North,-999,-999.0,-999.0,54,-99.99,,,-99.99,,2013-05-11 03:21:00,
2013-05-10 22:33:00,54.0,36.0,30.08,North,-999,-999.0,-999.0,50,-99.99,,,-99.99,,2013-05-11 03:33:00,
2013-05-10 22:42:00,54.0,36.0,30.08,North,-999,-999.0,-999.0,50,-99.99,,,-99.99,,2013-05-11 03:42:00,
2013-05-10 22:53:00,52.0,34.0,30.09,North,-999,-999.0,-999.0,50,-99.99,,,-99.99,,2013-05-11 03:53:00,
2013-05-10 23:02:00,52.0,34.0,30.09,North,-999,-999.0,-999.0,50,-99.99,,,-99.99,,2013-05-11 04:02:00,
2013-05-10 23:12:00,50.0,34.0,30.10,North,-999,-999.0,-999.0,53,-99.99,,,-99.99,,2013-05-11 04:12:00,
2013-05-10 23:23:00,50.0,34.0,30.10,North,-999,-999.0,-999.0,53,-99.99,,,-99.99,,2013-05-11 04:23:00,
2013-05-10 23:33:00,48.0,32.0,30.11,North,-999,-999.0,-999.0,53,-99.99,,,-99.99,,2013-05-11 04:33:00,
2013-05-10 23:43:00,48.0,32.0,30.11,North,-999,-999.0,-999.0,53,-99.99,,,-99.99,,2013-05-11 04:43:00,
2013-05-10 23:52:00,48.0,30.0,30.12,North,-999,-999.0,-999.0,49,-99.99,,,-99.99,,2013-05-11 04:52:00,